Location: Appeville
(49.3218°N, 1.3427°W)
Time: 04:52:40
(UTC+00:00)

Cosmos 407 Rocket - Pass Details

Date: 08 December 2019
Orbit: 743 x 787 km, 74.0° (Epoch: 22 January)

Event Time Altitude Azimuth Distance (km) Brightness Sun altitude
Exits shadow 04:29:54 50° 128° (SE) 993 4.2 -31.0°
Drops below altitude 10° 04:33:56 10° 149° (SSE) 2,344 6.3 -30.4°
Sets 04:36:20 0° 151° (SSE) 3,269 7.1 -30.0°
